Regional Weather Roundup
Issued by NWS

Home | Current Version | Previous Version | Text Only | Print | Product List | Glossary On
Versions: 1 2 3 4 5 6 7 8 9 10 11 12 13 14 15 16 17 18 19 20 21 22 23 24 25 26 27 28 29 30 31 32 33 34 35 36 37 38 39 40 41 42 43 44 45 46 47 48 49 50
000
ASUS44 KOUN 291910
RWROK

WEATHER ROUNDUP FOR OKLAHOMA
NATIONAL WEATHER SERVICE NORMAN OK
200 PM CDT FRI APR 29 2016

NOTE: "FAIR" INDICATES FEW OR NO CLOUDS BELOW 12,000 FEET WITH NO
      SIGNIFICANT WEATHER AND/OR OBSTRUCTIONS TO VISIBILITY.

OKZ001>007-009>012-014-015-017-292000-
NORTHWEST OKLAHOMA AND THE PANHANDLE

CITY           SKY/WX    TMP DP  RH WIND       PRES   REMARKS
GAGE           CLOUDY    48  45  89 NE16G28   29.75F
GUYMON         CLOUDY    48  45  89 E16G23    29.78R
$$

OKZ016-021>023-033>039-044-045-292000-
SOUTHWEST OKLAHOMA

CITY           SKY/WX    TMP DP  RH WIND       PRES   REMARKS
LAWTON/REGL    MOSUNNY   79  70  74 SE17      29.59F
LAWTON/FT SILL CLOUDY    78  71  80 SE15      29.58F
FREDERICK      MOSUNNY   84  69  60 S21G28    29.53F
CLINTON        CLOUDY    54  52  93 N17       29.70F FOG
HOBART         TSTM      60  59  96 NE12      29.64F FOG
ALTUS AFB      TSTM      64  61  88 N16G28    29.61S VSB 1/2
$$

OKZ018>020-024>031-292000-
CENTRAL OKLAHOMA

CITY           SKY/WX    TMP DP  RH WIND       PRES   REMARKS
OKLAHOMA CITY  CLOUDY    65  62  90 SE13      29.66F
OKC/WILEY POST CLOUDY    65  61  87 E14       29.67S
OKC/TINKER AFB CLOUDY    67  62  84 E10       29.65F
STILLWATER     CLOUDY    62  59  90 E15       29.70F
GUTHRIE        CLOUDY    65  59  81 E18G26    29.66F
$$

OKZ008-013-054>072-292000-
NORTHEAST OKLAHOMA

CITY           SKY/WX    TMP DP  RH WIND       PRES   REMARKS
TULSA          CLOUDY    68  61  78 E9G18     29.71F
TULSA/JONES    CLOUDY    69  62  78 E13       29.73F
PONCA CITY     CLOUDY    59  52  77 NW23G41   29.78R
BARTLESVILLE   CLOUDY    69  58  67 E13       29.77F
MUSKOGEE       SUNNY     72  62  71 SE16      29.73F
$$

OKZ032-040>043-046>053-073>077-292000-
SOUTH CENTRAL/SOUTHEAST OKLAHOMA

CITY           SKY/WX    TMP DP  RH WIND       PRES   REMARKS
ARDMORE/DWNTWN CLOUDY    77  68  73 SE10      29.65F
MCALESTER      MOSUNNY   74  65  73 E9        29.71F
$$





USA.gov is the U.S. government's official web portal to all federal, state and local government web resources and services.